Погода в Звереве

Россия / Ростовская область     48°01′42″N   40°07′23″E
темп.,
°C
ветер,
м/с
пор.,
м/с
влажн.,
%
обл.,
%
осадки,
мм/ч
давл.,
гПа
погр.,
м
19 апреля, пн
пн1900:00+9зюз0081100 0.1 101727
03:00+9св118450 0.1 101613
06:00+9св128692 0.0 101540
09:00+11вюв227399 0.0 1015653
12:00+14юв226398 0.1 10141177
15:00+14ю336677 0.4 1013885
18:00+12ююз2376100 0.1 1013300
21:00+11ююз2280100 0.1 101452
20 апреля, вт
вт2000:00+9в228490 0.0 101211
03:00+9в2493100 0.0 1011110
06:00+9в61198100 1.8 1008372
09:00+10в71398100 8.1 1006568
12:00+12юв91595100 3.9 1003734
15:00+14ююз9138835 4.3 1003917
18:00+14ююз9167598 0.1 10021444
21:00+10ююз131887100 0.1 10041108
21 апреля, ср
ср2100:00+9юз111792100 0.0 10071025
03:00+9юз81490100 0.1 1010826
06:00+8юз61292100 0.0 1013577
09:00+12зюз710705 0.0 1014967
12:00+14юз785599 0.1 10151742
15:00+14зюз685886 0.6 10161455
18:00+13зюз576279 0.0 1017669
21:00+9юз4982100 0.0 1019212
22 апреля, чт
чт2200:00+8юз368466 0.0 1020118
03:00+7юз36895 0.1 1020110
06:00+6юз35896 0.1 1021112
09:00+12зюз446799 0.1 1022580
12:00+15юз445730 2.0 10221392
15:00+16юз445053 3.6 10211823
18:00+14зюз456394 0.3 1022570
21:00+10зюз33780 0.4 102330
23 апреля, пт
пт2300:00+8зюз34830 0.0 102366
03:00+7зюз35825 0.0 102271
06:00+7юз35855 0.0 102396
09:00+13юз46645 0.0 1022634
12:00+16юз56544 0.8 10211563
15:00+17юз664599 1.6 10202262
18:00+15юз575692 0.0 1020431
21:00+10юз48765 0.0 1020154